When you browse on this site, cookies collect data to enhance your experience and personalize the content and advertising you see.
Visit our Privacy Policy to learn more. By continuing to use the site, you agree to this use of cookies and data.
  • In Hungary
  • List of Countries
  • For 7 days
  • Water Temperature
  • Satellite Maps
  • Weather Map
  • News
  • Weather Widgets
  • user-avatar
    Login

    Hourly Weather Klagenfurt

    Today, 23 January, Wednesday

    Time Temperature Precipitation Wind Pressure Humidity
    00:00 -4°C° 0.4 mm 1 mps 678 mmHg 87%
    01:00 -4°C° 0.4 mm 1 mps 677 mmHg 87%
    02:00 -4°C° 0.5 mm 1 mps 677 mmHg 87%
    03:00 -4°C° 0.5 mm 1 mps 676 mmHg 88%
    04:00 -4°C° 0.5 mm 1 mps 676 mmHg 88%
    05:00 -4°C° 0.3 mm 1 mps 675 mmHg 88%
    06:00 -6°C° 0.3 mm 1 mps 675 mmHg 88%
    07:00 -6°C° 0.3 mm 1 mps 675 mmHg 88%
    08:00 -4°C° 0.3 mm 1 mps 675 mmHg 86%
    09:00 -4°C° 0.3 mm 1 mps 675 mmHg 84%
    10:00 -3°C° 0.3 mm 1 mps 675 mmHg 82%
    11:00 -3°C° 0.3 mm 1 mps 675 mmHg 80%
    12:00 -2°C° 0.3 mm 1 mps 674 mmHg 78%
    13:00 -2°C° 0.3 mm 1 mps 674 mmHg 76%
    14:00 -2°C° 0.2 mm 1 mps 674 mmHg 79%
    15:00 -2°C° 0.2 mm 1 mps 674 mmHg 81%
    16:00 -2°C° 0.2 mm 1 mps 674 mmHg 83%
    17:00 -3°C° 0.2 mm 1 mps 674 mmHg 86%
    18:00 -3°C° 0.2 mm 1 mps 674 mmHg 89%
    19:00 -4°C° 0.2 mm 1 mps 674 mmHg 92%
    20:00 -4°C° 0.1 mm 1 mps 674 mmHg 93%
    21:00 -4°C° 0.1 mm 1 mps 674 mmHg 93%
    22:00 -4°C° 0.1 mm 1 mps 675 mmHg 93%
    23:00 -4°C° 0.1 mm 1 mps 675 mmHg 92%

    Tomorrow, 24 January, Thursday

    Time Temperature Precipitation Wind Pressure Humidity
    00:00 -4°C° 0.1 mm 1 mps 675 mmHg 91%
    01:00 -4°C° 0.1 mm 1 mps 675 mmHg 90%
    02:00 -6°C° 0 mm 1 mps 675 mmHg 90%
    03:00 -6°C° 0 mm 1 mps 675 mmHg 90%
    04:00 -7°C° 0 mm 1 mps 675 mmHg 90%
    05:00 -7°C° 0 mm 1 mps 675 mmHg 90%
    06:00 -7°C° 0 mm 1 mps 675 mmHg 89%
    07:00 -7°C° 0 mm 1 mps 676 mmHg 88%
    08:00 -6°C° 0 mm 1 mps 676 mmHg 83%
    09:00 -4°C° 0 mm 1 mps 677 mmHg 78%
    10:00 -2°C° 0 mm 1 mps 677 mmHg 74%
    11:00 -1°C° 0 mm 1 mps 677 mmHg 70%
    12:00 -2°C° 0 mm 2 mps 677 mmHg 67%
    13:00 -1°C° 0 mm 2 mps 677 mmHg 64%
    14:00 0°C° 0 mm 1 mps 677 mmHg 67%
    15:00 0°C° 0 mm 1 mps 677 mmHg 70%
    16:00 0°C° 0 mm 1 mps 677 mmHg 72%
    17:00 -1°C° 0 mm 1 mps 678 mmHg 76%
    18:00 -2°C° 0 mm 1 mps 678 mmHg 79%
    19:00 -3°C° 0 mm 1 mps 678 mmHg 83%
    20:00 -6°C° 0 mm 2 mps 679 mmHg 82%
    21:00 -6°C° 0 mm 2 mps 679 mmHg 82%
    22:00 -6°C° 0 mm 2 mps 679 mmHg 81%
    23:00 -7°C° 0 mm 2 mps 679 mmHg 80%

    Day after tomorrow, 25 January, Friday

    Time Temperature Precipitation Wind Pressure Humidity
    00:00 -7°C° 0 mm 2 mps 679 mmHg 78%
    01:00 -8°C° 0 mm 2 mps 679 mmHg 77%
    02:00 -8°C° 0 mm 2 mps 679 mmHg 76%
    03:00 -8°C° 0 mm 2 mps 679 mmHg 75%
    04:00 -8°C° 0 mm 2 mps 679 mmHg 74%
    05:00 -8°C° 0 mm 2 mps 679 mmHg 74%
    06:00 -8°C° 0 mm 2 mps 679 mmHg 73%
    07:00 -8°C° 0 mm 2 mps 679 mmHg 73%
    08:00 -7°C° 0 mm 2 mps 679 mmHg 70%
    09:00 -6°C° 0 mm 2 mps 680 mmHg 66%
    10:00 -5°C° 0 mm 2 mps 680 mmHg 62%
    11:00 -4°C° 0 mm 2 mps 680 mmHg 61%
    12:00 -4°C° 0 mm 2 mps 680 mmHg 60%
    13:00 -3°C° 0 mm 2 mps 681 mmHg 58%
    14:00 -3°C° 0 mm 2 mps 681 mmHg 60%
    15:00 -3°C° 0 mm 2 mps 681 mmHg 62%
    16:00 -3°C° 0 mm 2 mps 681 mmHg 64%
    17:00 -4°C° 0 mm 2 mps 681 mmHg 68%
    18:00 -5°C° 0 mm 2 mps 681 mmHg 71%
    19:00 -6°C° 0 mm 2 mps 682 mmHg 74%
    20:00 -6°C° 0 mm 2 mps 682 mmHg 73%
    21:00 -6°C° 0 mm 2 mps 682 mmHg 73%
    22:00 -6°C° 0 mm 2 mps 683 mmHg 72%
    23:00 -6°C° 0 mm 2 mps 683 mmHg 72%

    26 January, Saturday

    Time Temperature Precipitation Wind Pressure Humidity
    00:00 -7°C° 0 mm 2 mps 683 mmHg 72%
    01:00 -7°C° 0 mm 2 mps 683 mmHg 72%
    02:00 -7°C° 0 mm 2 mps 683 mmHg 72%
    03:00 -8°C° 0 mm 2 mps 683 mmHg 72%
    04:00 -8°C° 0 mm 2 mps 683 mmHg 72%
    05:00 -8°C° 0 mm 2 mps 683 mmHg 72%
    06:00 -8°C° 0 mm 2 mps 683 mmHg 72%
    07:00 -9°C° 0 mm 2 mps 683 mmHg 72%
    08:00 -6°C° 0 mm 1 mps 683 mmHg 68%
    09:00 -4°C° 0 mm 1 mps 684 mmHg 63%
    10:00 -3°C° 0 mm 1 mps 684 mmHg 59%
    11:00 -1°C° 0 mm 1 mps 684 mmHg 55%
    12:00 0°C° 0 mm 1 mps 683 mmHg 52%
    13:00 +1°C° 0 mm 1 mps 683 mmHg 49%
    14:00 +1°C° 0 mm 1 mps 683 mmHg 53%
    15:00 0°C° 0 mm 1 mps 682 mmHg 57%
    16:00 -1°C° 0 mm 0 mps 682 mmHg 61%
    17:00 -3°C° 0 mm 0 mps 681 mmHg 65%
    18:00 -4°C° 0 mm 0 mps 681 mmHg 70%
    19:00 -5°C° 0 mm 0 mps 681 mmHg 75%
    20:00 -6°C° 0 mm 0 mps 681 mmHg 76%
    21:00 -6°C° 0 mm 0 mps 680 mmHg 76%
    22:00 -6°C° 0 mm 0 mps 680 mmHg 77%
    23:00 -6°C° 0 mm 0 mps 679 mmHg 77%

    27 January, Sunday

    Time Temperature Precipitation Wind Pressure Humidity
    00:00 -6°C° 0 mm 0 mps 679 mmHg 77%
    01:00 -6°C° 0 mm 0 mps 678 mmHg 76%
    02:00 -7°C° 0 mm 0 mps 678 mmHg 76%
    03:00 -7°C° 0 mm 0 mps 677 mmHg 76%
    04:00 -7°C° 0 mm 0 mps 677 mmHg 76%
    05:00 -7°C° 0 mm 0 mps 676 mmHg 75%
    06:00 -7°C° 0 mm 0 mps 676 mmHg 75%
    07:00 -7°C° 0 mm 0 mps 676 mmHg 75%
    08:00 -6°C° 0 mm 0 mps 676 mmHg 70%
    09:00 -4°C° 0 mm 0 mps 677 mmHg 66%
    10:00 -2°C° 0 mm 0 mps 677 mmHg 61%
    11:00 -1°C° 0 mm 0 mps 677 mmHg 59%
    12:00 0°C° 0 mm 0 mps 677 mmHg 56%
    13:00 +1°C° 0 mm 0 mps 677 mmHg 54%
    14:00 +1°C° 0 mm 1 mps 677 mmHg 58%
    15:00 +1°C° 0 mm 1 mps 677 mmHg 62%
    16:00 0°C° 0 mm 1 mps 676 mmHg 67%
    17:00 -1°C° 0 mm 1 mps 676 mmHg 70%
    18:00 -2°C° 0 mm 1 mps 677 mmHg 74%
    19:00 -3°C° 0 mm 1 mps 677 mmHg 78%
    20:00 -3°C° 0.2 mm 1 mps 677 mmHg 81%
    21:00 -3°C° 0.2 mm 1 mps 677 mmHg 84%
    22:00 -3°C° 0.2 mm 1 mps 677 mmHg 87%
    23:00 -3°C° 0.4 mm 1 mps 677 mmHg 88%

    28 January, Monday

    Time Temperature Precipitation Wind Pressure Humidity
    00:00 -3°C° 0.4 mm 1 mps 677 mmHg 89%
    01:00 -3°C° 0.4 mm 1 mps 677 mmHg 90%
    02:00 -3°C° 0.3 mm 1 mps 677 mmHg 90%
    03:00 -3°C° 0.3 mm 1 mps 676 mmHg 90%
    04:00 -3°C° 0.3 mm 1 mps 676 mmHg 90%
    05:00 -3°C° 0.9 mm 1 mps 676 mmHg 91%
    06:00 -3°C° 0.9 mm 1 mps 676 mmHg 91%
    07:00 -3°C° 0.9 mm 1 mps 677 mmHg 91%
    08:00 -3°C° 1 mm 1 mps 677 mmHg 91%
    09:00 -3°C° 1 mm 1 mps 677 mmHg 90%
    10:00 -2°C° 1 mm 1 mps 677 mmHg 89%
    11:00 -2°C° 1.2 mm 1 mps 678 mmHg 90%
    12:00 -2°C° 1.2 mm 1 mps 678 mmHg 90%
    13:00 -2°C° 1.2 mm 1 mps 678 mmHg 90%
    14:00 -2°C° 0.7 mm 1 mps 678 mmHg 90%
    15:00 -2°C° 0.7 mm 1 mps 679 mmHg 89%
    16:00 -2°C° 0.7 mm 1 mps 679 mmHg 89%
    17:00 -2°C° 0.2 mm 1 mps 679 mmHg 90%
    18:00 -3°C° 0.2 mm 1 mps 680 mmHg 92%
    19:00 -3°C° 0.2 mm 1 mps 680 mmHg 93%
    20:00 -3°C° 0.1 mm 1 mps 681 mmHg 93%
    21:00 -5°C° 0.1 mm 0 mps 681 mmHg 93%
    22:00 -5°C° 0.1 mm 0 mps 682 mmHg 93%
    23:00 -4°C° 0 mm 1 mps 682 mmHg 93%
    Show more